Theta_e
314 314 314 315 316 316 316 317 318 318 317 317 316 316 318 318 318 318 319 319 320 320 320 322 325 326 326 326 325 324 324 323 324 324 323 320 319 317 316 316 316 316 317 317
312 312 314 315 314 314 315 314 315 316 317 317 315 315 315 315 316 317 318 319 319 320 320 319 320 324 326 326 324 324 324 324 323 323 323 323 323 321 320 319 318 318 318 319
311 313 312 312 313 314 315 315 314 314 314 313 313 314 314 314 316 318 318 318 318 318 320 320 319 319 318 320 326 324 323 323 323 323 323 323 323 322 322 321 321 321 321 320
313 314 312 311 312 312 313 313 312 312 312 314 315 316 317 317 318 318 318 319 319 319 318 319 319 318 317 321 324 325 322 323 323 322 322 322 322 322 321 321 321 322 321 321
314 314 312 311 310 310 311 310 312 314 314 314 314 315 316 318 316 317 317 318 318 318 319 319 317 318 317 319 322 324 323 321 321 322 323 323 323 323 322 322 322 322 322 323
313 311 311 311 313 313 313 312 314 314 315 315 315 317 317 315 316 317 317 317 316 316 317 317 317 316 316 317 318 322 322 324 324 323 324 324 324 324 323 323 322 324 324 323
312 314 312 311 310 312 316 316 313 313 313 313 316 317 315 315 315 316 315 315 315 316 317 318 317 317 316 316 317 320 321 321 323 324 324 324 323 323 323 323 323 323 322 321
311 312 313 311 312 313 317 314 312 312 312 313 315 315 315 315 315 315 314 313 313 314 315 316 317 318 318 319 321 320 319 319 320 321 321 322 322 323 323 323 322 321 319 316
311 312 312 312 314 312 312 313 313 313 313 314 315 315 313 313 313 312 311 310 309 309 309 313 315 315 318 318 319 319 320 321 321 321 321 323 323 322 321 320 318 316 312 310
311 311 311 310 311 310 310 310 309 309 310 312 313 314 312 312 310 311 309 309 305 307 306 309 313 314 314 316 317 319 321 321 322 323 321 320 319 318 316 315 312 309 307 306
310 310 309 309 311 309 307 307 306 306 305 306 305 307 305 305 304 309 308 308 306 302 305 304 304 309 312 313 315 318 319 317 317 318 317 313 311 309 308 306 305 305 303 302
310 310 309 309 308 305 306 305 304 303 303 301 300 300 299 298 298 304 305 305 303 297 303 303 301 305 309 310 310 312 312 309 308 308 308 306 305 302 300 300 299 299 298 299
308 305 306 306 306 301 302 301 299 298 297 297 296 296 295 293 297 296 297 299 302 293 296 297 297 300 303 305 306 305 305 304 302 302 301 299 297 297 295 292 293 293 292 292
300 299 304 301 302 300 298 296 296 295 293 292 292 292 291 291 294 293 293 292 294 294 292 294 297 295 297 299 301 301 296 297 299 296 295 295 293 292 291 291 289 287 287 288
295 296 296 297 297 297 297 295 294 292 291 289 287 287 288 292 289 288 288 289 289 292 290 292 292 292 294 296 299 297 296 294 293 292 291 290 290 289 288 287 286 284 283 283
293 295 295 294 293 293 293 291 291 288 288 286 284 284 285 286 285 286 288 289 289 288 289 290 290 291 292 294 294 294 293 292 291 290 290 289 288 287 286 285 284 282 281 280
292 295 292 292 290 287 287 286 286 285 284 283 282 282 283 284 285 285 285 286 287 287 287 288 287 288 289 290 290 289 289 289 289 288 287 286 286 285 283 282 281 280 279 279
287 287 286 287 287 286 284 283 283 282 281 282 282 283 284 284 282 282 283 284 285 285 284 284 285 287 287 287 287 287 287 287 286 285 284 283 281 279 278 277 276 275 275 277
284 284 284 283 283 282 281 281 281 281 281 282 283 283 282 282 282 282 283 283 283 282 281 283 284 285 285 284 284 284 283 283 282 281 280 279 277 276 275 274 274 273 273 272
281 282 281 281 281 281 280 280 281 281 281 282 282 282 281 280 281 282 282 281 279 279 280 280 280 280 280 280 281 280 280 279 278 277 275 274 273 273 273 272 271 271 270 270
280 280 281 281 280 280 280 281 282 281 281 281 282 281 280 280 280 280 280 279 276 276 276 275 276 276 276 275 276 275 275 274 274 272 272 271 271 270 270 270 270 269 269 268
280 281 281 281 281 281 281 281 282 281 281 281 280 279 279 278 277 276 275 273 273 274 274 274 273 273 273 273 273 273 273 272 272 271 271 270 269 269 269 269 269 268 268 267
281 281 281 281 281 280 280 280 280 279 279 278 277 277 275 273 273 272 271 271 271 272 272 271 271 271 272 272 272 271 271 271 270 270 270 270 269 269 269 268 268 268 268 268
280 280 280 280 280 279 278 276 277 276 276 276 275 274 273 272 272 271 271 270 270 271 271 270 270 271 271 271 270 270 270 270 269 269 269 269 268 268 268 268 268 267 267 267
280 280 279 278 277 276 276 275 275 274 274 273 272 272 271 271 270 269 270 269 269 269 269 269 269 270 270 269 269 269 269 269 268 268 268 268 268 268 267 267 267 267 267 267
279 279 278 277 276 275 274 274 274 273 272 271 270 270 270 270 269 269 269 269 269 269 269 269 269 269 269 269 269 268 268 268 268 267 267 267 267 267 267 267 267 267 267 267
278 276 275 274 274 274 273 273 272 271 271 270 269 269 269 269 269 269 269 268 268 268 268 268 268 268 268 268 267 267 267 267 267 267 267 266 266 266 266 266 266 266 266 266
Wind_Speed
1 1 1 4 7 7 6 6 6 8 9 8 9 12 16 18 22 25 26 23 18 16 15 16 21 25 27 30 33 36 36 37 44 45 45 42 43 42 42 43 44 42 40 40
5 5 6 8 9 9 10 11 11 15 17 12 13 14 16 20 22 23 26 28 24 20 18 18 20 24 24 28 32 33 36 39 37 37 38 41 41 41 39 41 41 39 39 38
9 3 5 8 15 16 13 12 9 11 8 11 12 13 19 24 24 26 30 29 29 28 21 18 18 23 27 28 26 32 34 33 34 34 35 35 34 35 36 36 32 33 33 33
3 3 7 1 3 0 6 9 8 8 8 7 9 12 17 22 20 22 27 31 31 30 27 20 19 18 23 22 26 31 32 31 31 33 33 30 29 29 28 28 28 29 31 32
4 11 9 12 6 8 7 4 0 3 6 10 11 13 10 10 19 25 27 30 33 31 30 30 24 18 21 21 25 28 33 33 31 31 30 29 29 27 24 26 28 29 27 26
5 7 6 4 5 1 1 3 7 7 8 11 14 8 8 21 22 24 27 30 34 32 31 28 30 22 22 23 25 30 33 30 28 29 29 27 25 28 29 25 22 22 24 24
11 7 3 9 6 2 5 4 11 15 15 17 9 10 17 20 25 24 27 31 34 31 28 25 23 23 26 25 27 26 27 29 27 25 27 34 32 27 24 21 22 23 24 23
11 6 6 6 3 4 7 9 16 19 20 20 19 15 15 16 23 26 30 32 32 31 27 21 19 18 19 17 24 27 30 29 30 29 29 28 27 23 20 19 20 21 21 20
7 7 3 3 3 8 10 12 15 17 20 21 17 11 11 16 19 24 30 30 29 26 24 21 14 8 10 18 20 20 21 23 22 22 23 24 22 22 24 20 21 21 20 19
5 8 10 8 2 6 9 9 11 14 15 15 13 14 15 15 18 23 33 38 30 24 19 15 9 6 8 11 14 17 18 22 24 26 24 22 21 18 17 17 20 19 20 20
12 13 12 13 2 8 10 10 12 13 13 12 14 14 16 15 16 19 24 36 26 20 14 10 7 0 7 12 15 20 24 25 25 24 23 22 20 20 18 19 17 18 18 17
8 5 1 6 9 9 13 12 13 14 14 12 12 14 14 12 13 15 12 17 20 16 10 8 5 8 8 8 13 19 23 25 26 27 27 25 25 26 21 18 16 13 14 13
4 6 8 12 11 7 10 10 10 10 11 12 10 10 9 8 11 11 8 8 9 12 10 9 9 11 13 13 15 19 25 26 26 26 27 26 25 25 27 22 19 18 16 13
5 8 7 8 4 11 12 11 9 6 7 9 9 7 7 7 8 9 12 12 10 7 10 13 16 19 19 14 15 17 17 21 22 22 22 24 24 25 25 25 24 23 18 15
7 7 9 12 10 10 10 8 5 5 6 8 8 7 5 7 8 10 13 15 14 15 19 20 25 25 21 19 21 23 23 25 27 28 28 26 25 22 21 20 20 19 16 13
12 9 3 1 5 7 6 6 2 4 5 5 7 9 10 13 14 16 19 21 24 29 28 29 30 28 27 27 28 28 27 25 24 24 21 20 20 18 17 15 15 13 11 9
9 3 7 4 4 5 4 4 3 3 4 8 11 14 18 23 26 26 27 28 27 28 26 27 26 23 24 25 24 25 23 21 19 18 18 17 16 15 13 12 11 9 8 7
4 3 4 4 4 5 8 6 7 9 11 13 17 20 22 25 27 26 26 25 25 25 26 24 21 21 21 21 20 19 18 18 16 16 15 14 14 13 12 12 10 9 7 5
6 7 7 9 9 10 11 11 13 15 17 20 22 24 25 24 23 23 22 23 25 25 22 18 17 17 18 17 16 16 15 15 15 15 14 13 13 12 12 11 10 8 7 6
11 11 12 13 13 14 17 17 19 22 22 22 23 23 23 22 21 21 20 25 23 19 14 14 14 16 16 14 13 14 13 13 13 13 12 12 12 11 9 8 8 7 6 6
15 17 20 21 21 21 21 21 21 22 21 20 20 20 19 17 17 17 18 19 17 14 13 12 12 13 13 11 11 11 11 11 11 12 11 10 10 9 8 8 7 6 6 6
19 21 22 22 23 23 22 21 21 21 20 20 19 18 16 16 15 16 17 16 14 12 11 12 13 13 11 10 12 12 12 11 11 11 10 9 9 8 7 7 6 5 4 4
20 21 22 22 22 21 19 18 17 16 16 15 14 13 13 13 11 10 13 15 13 12 12 12 12 11 11 11 12 12 12 11 10 10 9 8 7 7 6 5 4 3 3 5
18 18 18 17 16 15 16 14 13 13 12 12 11 10 10 10 11 12 12 11 10 10 9 10 10 10 10 11 11 10 10 9 9 8 7 6 5 4 4 4 4 5 6 8
14 14 12 11 11 11 10 9 9 9 9 9 9 10 10 9 9 9 9 9 9 9 9 10 10 10 10 10 9 8 8 8 7 6 5 5 5 5 5 6 7 8 9 10
9 9 9 9 9 7 6 6 6 6 6 7 8 8 8 9 8 8 7 8 8 8 8 8 8 8 8 8 8 7 6 6 6 5 5 6 6 7 8 9 9 10 10 10
9 9 7 7 6 6 5 5 5 6 6 6 6 6 5 5 5 5 6 6 7 8 8 8 7 7 6 6 6 7 7 7 7 7 7 7 8 9 9 10 10 10 10 11
Wind_Direction
137 116 253 202 199 189 212 237 233 255 250 262 267 277 298 311 305 307 308 306 304 284 261 244 235 224 219 218 219 218 218 220 228 233 232 231 232 235 235 236 239 240 239 239
257 264 247 259 253 249 242 241 250 250 259 264 289 288 302 307 310 313 304 298 300 303 275 253 249 234 226 223 223 220 220 226 226 227 230 232 233 234 236 240 240 239 239 238
252 307 292 263 237 236 240 238 247 269 293 325 303 300 304 302 303 308 310 306 300 301 302 274 269 268 250 243 223 222 224 223 223 225 226 226 229 230 232 234 235 236 235 236
227 216 238 352 115 207 259 263 273 287 315 327 320 315 303 293 300 321 322 315 305 297 294 285 290 273 265 236 228 225 225 224 223 224 225 221 222 224 224 225 227 232 235 238
220 219 282 289 251 236 228 257 234 22 350 339 329 314 295 3 329 324 321 316 310 299 294 289 282 280 281 246 230 227 229 229 226 224 220 216 217 218 220 221 226 230 239 246
193 236 238 135 132 91 343 236 112 336 322 335 333 322 349 331 328 330 329 324 319 310 299 288 280 279 271 268 242 231 233 227 223 221 219 214 214 213 222 228 234 235 239 241
220 238 253 258 265 357 217 75 349 342 329 329 321 327 320 322 329 331 338 334 328 320 310 296 284 271 269 265 249 238 230 228 221 213 209 213 215 213 218 220 224 230 235 237
224 229 240 221 193 220 11 333 342 330 323 320 319 321 328 332 332 335 343 342 334 327 322 313 295 278 266 254 238 233 230 225 220 219 217 211 210 202 201 209 221 219 219 217
208 213 96 140 30 10 5 351 344 333 325 318 307 315 334 339 343 343 346 342 334 331 324 318 301 298 249 246 243 234 221 208 201 198 192 185 188 191 191 189 212 206 202 197
214 228 245 293 81 17 358 350 334 335 334 343 322 307 310 318 329 341 348 342 329 328 332 336 324 252 213 207 203 200 192 181 174 173 172 176 180 185 193 186 190 186 170 163
249 254 267 264 10 350 344 343 334 325 330 332 332 329 326 326 328 336 352 342 319 324 328 357 10 90 166 173 184 180 168 163 161 162 162 160 154 154 158 155 164 165 164 158
259 76 250 290 324 324 330 334 332 328 325 327 329 331 336 335 338 337 345 340 316 336 336 356 47 100 117 146 171 164 154 147 144 144 142 146 148 143 139 144 144 150 155 162
7 323 297 290 301 333 331 334 328 331 330 334 337 344 350 349 349 354 8 3 325 5 20 15 60 87 109 133 147 144 141 140 138 136 136 135 133 134 128 121 130 130 128 127
357 330 311 54 332 318 324 330 331 341 350 356 351 2 7 7 9 18 35 47 45 33 50 72 69 70 81 94 119 117 109 112 116 114 115 116 115 114 117 121 118 109 110 116
344 334 301 293 277 294 313 323 338 2 18 16 16 29 25 44 46 63 76 81 82 88 77 75 75 78 82 94 105 104 103 103 109 110 109 109 109 111 112 111 110 109 106 99
320 319 331 333 297 309 322 326 334 18 11 41 47 57 65 78 85 87 91 95 88 78 78 81 81 85 90 91 92 95 99 103 104 106 106 105 106 108 106 108 111 112 107 94
325 297 333 349 3 11 6 1 13 55 94 91 85 88 91 93 92 89 88 88 87 81 79 77 78 80 81 84 88 92 94 94 93 95 99 99 99 100 102 105 106 104 100 104
24 20 25 39 55 63 62 68 89 93 98 110 113 110 104 98 91 89 89 90 88 84 79 79 82 81 82 82 85 89 93 95 98 97 98 95 93 98 96 94 92 89 83 84
63 72 75 79 85 88 90 94 101 108 111 113 112 103 99 99 99 97 96 91 82 74 66 70 74 78 79 80 82 84 85 88 90 89 88 91 89 85 83 83 82 79 72 63
76 87 89 92 98 102 106 109 113 112 111 111 108 105 99 96 94 92 88 79 72 69 66 64 62 65 66 66 68 73 77 80 84 87 88 83 83 82 83 87 83 76 64 56
95 101 102 102 103 104 104 107 108 106 107 106 102 99 97 95 93 88 78 75 68 61 59 54 54 57 58 61 64 69 72 73 77 78 78 78 79 77 75 70 66 63 58 55
103 103 103 104 103 103 104 104 104 106 105 103 101 100 95 85 77 75 74 66 57 48 48 53 55 57 63 68 72 74 75 76 75 76 77 76 76 75 71 66 60 52 38 22
103 104 105 104 103 102 104 101 102 103 102 99 95 88 82 78 73 66 58 53 51 49 57 61 62 62 63 69 72 73 74 76 78 77 74 71 68 64 60 53 39 21 353 339
105 104 102 103 105 104 94 92 94 93 90 89 87 85 76 69 67 64 60 57 55 52 56 62 61 61 62 65 65 64 64 63 63 60 54 52 48 42 28 6 347 336 329 326
108 106 101 93 87 85 89 91 90 86 84 81 79 75 75 79 79 71 61 55 52 51 50 51 51 51 52 54 53 53 51 45 39 34 27 16 4 353 342 333 327 323 320 318
109 104 104 108 101 99 98 101 98 90 85 83 78 77 76 74 67 59 51 46 43 43 43 43 40 38 36 33 28 23 16 8 1 355 349 345 340 335 330 325 322 319 317 316
105 97 91 92 96 97 96 98 95 85 86 90 90 86 80 69 58 48 42 40 37 35 33 30 28 24 18 10 2 355 349 343 341 337 333 329 328 326 325 324 322 321 321 322